Bloomington, IN

12:11 PM EST on December 11, 2019 (GMT -0500)
Monroe County

Weather History for KBMG - August, 2019

Change the Weather History Date:

Friday, August 23, 2019

  Actual Average Record
Temperature  
Mean Temperature 70 °F 73 °F  
Max Temperature 78 °F 85 °F 100 °F (2007)
Min Temperature 63 °F 61 °F 46 °F (1997)
Degree Days  
Heating Degree Days 0 0  
Month to date heating degree days 0 0  
Since 1 June heating degree days 14 17  
Since 1 July heating degree days 0 2  
Cooling Degree Days 6 8  
Month to date cooling degree days 221 199  
Year to date cooling degree days 928 765  
Since 1 June cooling degree days 797 683  
Growing Degree Days 20 (Base 50)    
Moisture  
Dew Point 64 °F    
Average Humidity 78    
Maximum Humidity 93    
Minimum Humidity 48    
Precipitation  
Precipitation 0.01 in 0.12 in 0.91 in (2014)
Month to date precipitation 2.28 2.49  
Year to date precipitation 34.32 32.16  
Sea Level Pressure  
Sea Level Pressure 30.07 in    
Wind  
Wind Speed 4 mph ()    
Max Wind Speed 15 mph    
Max Gust Speed 21 mph    
Visibility 8.9 miles    
Events Rain    
T = Trace of Precipitation, MM = Missing Value Source: Averaged Metar Reports

Daily Weather History Graph

Daily Weather History Graph

Search for Another Location

Airport or City:

Astronomy

Aug. 23, 2019 Rise Set
Actual Time 7:06 AM EDT 8:30 PM EDT
Civil Twilight 6:38 AM EDT 8:58 PM EDT
Nautical Twilight 6:05 AM EDT 9:32 PM EDT
Astronomical Twilight 5:29 AM EDT 10:07 PM EDT
Moon 12:25 AM EDT (8/23) 2:40 PM EDT (8/23)
Length of Visible Light 14h 20m
Length of Day
13h 24m
Waning Gibbous, 50% of the Moon is Illuminated
Aug 23
Waning Gibbous
Aug 30
New
Sep 5
First Quarter
Sep 14
Full
Sep 21
Last Quarter

Hourly Weather History & Observations

Time (EDT) Temp. Dew Point Humidity Pressure Visibility Wind Dir Wind Speed Gust Speed Precip Events Conditions
12:53 AM 71.1 °F 69.1 °F 93% 29.99 in 6.0 mi Calm Calm - N/A   Overcast
1:13 AM 71.1 °F 69.1 °F 93% 30.01 in 2.5 mi West 3.5 mph - N/A   Overcast
1:19 AM 71.1 °F 69.1 °F 93% 30.01 in 0.8 mi Calm Calm - N/A   Overcast
1:29 AM 71.1 °F 69.1 °F 93% 30.01 in 2.5 mi Calm Calm - 0.00 in Rain Light Rain
1:36 AM 71.1 °F 69.1 °F 93% 30.02 in 5.0 mi Calm Calm - 0.00 in Rain Light Rain
1:53 AM 71.1 °F 69.1 °F 93% 30.00 in 6.0 mi Calm Calm - 0.00 in   Overcast
2:53 AM 72.0 °F 69.1 °F 91% 29.99 in 8.0 mi NNE 3.5 mph - 0.01 in   Overcast
3:53 AM 71.1 °F 68.0 °F 90% 29.99 in 10.0 mi NE 8.1 mph - N/A   Overcast
4:53 AM 70.0 °F 66.9 °F 90% 30.00 in 10.0 mi NE 8.1 mph - N/A   Overcast
5:22 AM 70.0 °F 66.9 °F 90% 30.03 in 10.0 mi NE 5.8 mph - N/A   Overcast
5:53 AM 70.0 °F 66.0 °F 87% 30.01 in 10.0 mi NE 6.9 mph - N/A   Overcast
6:53 AM 69.1 °F 66.0 °F 90% 30.04 in 10.0 mi ENE 5.8 mph - N/A   Overcast
7:14 AM 69.1 °F 64.9 °F 87% 30.07 in 10.0 mi NNE 4.6 mph - N/A   Overcast
7:35 AM 69.1 °F 64.9 °F 87% 30.07 in 10.0 mi NE 5.8 mph - N/A   Overcast
7:53 AM 68.0 °F 64.9 °F 90% 30.06 in 10.0 mi NE 5.8 mph - N/A   Mostly Cloudy
8:18 AM 69.1 °F 64.9 °F 87% 30.09 in 10.0 mi ENE 4.6 mph - N/A   Mostly Cloudy
8:24 AM 69.1 °F 64.9 °F 87% 30.08 in 10.0 mi East 5.8 mph - N/A   Scattered Clouds
8:33 AM 69.1 °F 64.9 °F 87% 30.09 in 10.0 mi ENE 5.8 mph - N/A   Mostly Cloudy
8:53 AM 69.1 °F 64.0 °F 84% 30.08 in 10.0 mi ENE 6.9 mph - N/A   Mostly Cloudy
9:00 AM 70.0 °F 64.9 °F 84% 30.09 in 10.0 mi NE 5.8 mph - N/A   Mostly Cloudy
9:23 AM 71.1 °F 64.9 °F 81% 30.11 in 10.0 mi NE 10.4 mph - N/A   Mostly Cloudy
9:53 AM 71.1 °F 64.0 °F 78% 30.08 in 10.0 mi ENE 9.2 mph - N/A   Mostly Cloudy
10:48 AM 73.4 °F 62.6 °F 69% 30.12 in 10.0 mi ENE 8.1 mph - N/A   Scattered Clouds
10:53 AM 73.9 °F 64.0 °F 71% 30.10 in 10.0 mi ENE 9.2 mph - N/A   Scattered Clouds
11:53 AM 75.9 °F 64.0 °F 67% 30.09 in 10.0 mi ENE 8.1 mph - N/A   Mostly Cloudy
12:53 PM 77.0 °F 59.0 °F 54% 30.10 in 10.0 mi ENE 11.5 mph - N/A   Partly Cloudy
1:53 PM 77.0 °F 61.0 °F 58% 30.09 in 10.0 mi NE 10.4 mph - N/A   Scattered Clouds
2:53 PM 77.0 °F 61.0 °F 58% 30.10 in 10.0 mi NNE 10.4 mph - N/A   Partly Cloudy
3:53 PM 77.0 °F 59.0 °F 54% 30.09 in 10.0 mi NE 9.2 mph - N/A   Partly Cloudy
4:53 PM 78.1 °F 57.9 °F 50% 30.09 in 10.0 mi NNE 11.5 mph - N/A   Clear
5:53 PM 77.0 °F 57.0 °F 50% 30.09 in 10.0 mi ENE 11.5 mph - N/A   Partly Cloudy
6:53 PM 75.9 °F 57.0 °F 52% 30.09 in 10.0 mi ENE 9.2 mph - N/A   Partly Cloudy
7:53 PM 73.0 °F 55.9 °F 55% 30.10 in 10.0 mi ENE 10.4 mph - N/A   Partly Cloudy
8:53 PM 69.1 °F 57.0 °F 65% 30.11 in 10.0 mi Calm Calm - N/A   Partly Cloudy
9:53 PM 63.0 °F 60.1 °F 90% 30.13 in 10.0 mi Calm Calm - N/A   Mostly Cloudy
10:53 PM 68.0 °F 57.9 °F 70% 30.14 in 10.0 mi ENE 6.9 mph - N/A   Mostly Cloudy
11:53 PM 66.0 °F 54.0 °F 65% 30.15 in 10.0 mi ENE 11.5 mph - N/A   Clear